[TLELIST] Archives

 

[TLELIST] Current TLEs

September 15th 2023 PDT

HST 1 20580U 90037B 23257.81248889 .00005202 00000-0 26881-3 0 9998 2 20580 28.4700 31.3183 0001912 272.8941 212.7854 15.14018720635050 ISS (ZARYA) 1 25544U 98067A 23258.41510310 .00017764 00000-0 32632-3 0 9999 2 25544 51.6411 241.5794 0005745 20.8373 139.0145 15.49298881415789 CXO 1 25867U 99040B 23260.50833295 .00001120 00000-0 00000-0 0 9992 2 25867 37.3334 184.9791 9046737 272.1658 0.6137 0.37818921 13526 ...Continue Reading

[TLELIST] Current TLEs

September 14th 2023 PDT

HST 1 20580U 90037B 23256.82285900 .00006132 00000-0 31873-3 0 9993 2 20580 28.4700 37.9107 0001927 259.9274 221.0883 15.14009451634908 ISS (ZARYA) 1 25544U 98067A 23257.38022324 .00017103 00000-0 31494-3 0 9999 2 25544 51.6414 246.7016 0005696 16.7210 127.3716 15.49259772415628 CXO 1 25867U 99040B 23257.86400342 .00001078 00000-0 00000-0 0 9992 2 25867 37.3318 185.3140 9049798 271.8943 0.5927 0.37816461 13516 ...Continue Reading

[TLELIST] Current TLEs

September 13th 2023 PDT

HST 1 20580U 90037B 23255.83357118 .00006283 00000-0 32696-3 0 9995 2 20580 28.4697 44.5009 0001923 245.2563 233.0031 15.13999232634758 ISS (ZARYA) 1 25544U 98067A 23256.41618729 .00017281 00000-0 31853-3 0 9998 2 25544 51.6411 251.4735 0005608 14.3981 149.4424 15.49224328415471 CXO 1 25867U 99040B 23257.86400342 .00001078 00000-0 00000-0 0 9992 2 25867 37.3318 185.3140 9049798 271.8943 0.5927 0.37816461 13516 ...Continue Reading

[TLELIST] Current TLEs

September 12th 2023 PDT

HST 1 20580U 90037B 23255.11437545 .00005461 00000-0 28296-3 0 9997 2 20580 28.4696 49.2916 0001952 236.2340 274.3365 15.13989977634912 ISS (ZARYA) 1 25544U 98067A 23255.38032005 .00013436 00000-0 24997-3 0 9999 2 25544 51.6401 256.5983 0005435 10.4080 132.4374 15.49181900415313 CXO 1 25867U 99040B 23257.86400342 .00001078 00000-0 00000+0 0 9991 2 25867 37.3318 185.3140 9049798 271.8943 0.5927 0.37816461 24675 ...Continue Reading

[TLELIST] Current TLEs

September 12th 2023 PDT

HST 1 20580U 90037B 23255.11437545 .00005461 00000-0 28296-3 0 9997 2 20580 28.4696 49.2916 0001952 236.2340 274.3365 15.13989977634912 ISS (ZARYA) 1 25544U 98067A 23255.38032005 .00013436 00000-0 24997-3 0 9999 2 25544 51.6401 256.5983 0005435 10.4080 132.4374 15.49181900415313 CXO 1 25867U 99040B 23257.86400342 .00001078 00000-0 00000+0 0 9991 2 25867 37.3318 185.3140 9049798 271.8943 0.5927 0.37816461 24675 ...Continue Reading

[TLELIST] Current TLEs

September 11th 2023 PDT

HST 1 20580U 90037B 23253.92442184 .00005058 00000-0 26139-3 0 9995 2 20580 28.4695 57.2176 0002001 220.8049 271.2071 15.13977611634720 ISS (ZARYA) 1 25544U 98067A 23254.34581632 .00010182 00000-0 19171-3 0 9992 2 25544 51.6409 261.7195 0005425 5.1870 124.4139 15.49148687415158 CXO 1 25867U 99040B 23255.21910498 .00001004 00000-0 00000-0 0 9996 2 25867 37.3299 185.6725 9051732 271.5957 0.5289 0.37813136 13505 ...Continue Reading

[TLELIST] Current TLEs

September 10th 2023 PDT

HST 1 20580U 90037B 23252.86588201 .00005234 00000-0 27094-3 0 9995 2 20580 28.4694 64.2689 0002055 208.1048 263.0671 15.13968615634564 ISS (ZARYA) 1 25544U 98067A 23253.37876288 .00032365 00000-0 59026-3 0 9998 2 25544 51.6409 266.5052 0005792 3.2695 129.6030 15.49129367415009 CXO 1 25867U 99040B 23255.21910498 .00001004 00000-0 00000-0 0 9996 2 25867 37.3299 185.6725 9051732 271.5957 0.5289 0.37813136 13505 ...Continue Reading

[TLELIST] Current TLEs

September 10th 2023 PDT

HST 1 20580U 90037B 23252.86588201 .00005234 00000-0 27094-3 0 9995 2 20580 28.4694 64.2689 0002055 208.1048 263.0671 15.13968615634564 ISS (ZARYA) 1 25544U 98067A 23253.37876288 .00032365 00000-0 59026-3 0 9998 2 25544 51.6409 266.5052 0005792 3.2695 129.6030 15.49129367415009 CXO 1 25867U 99040B 23255.21910498 .00001004 00000-0 00000-0 0 9996 2 25867 37.3299 185.6725 9051732 271.5957 0.5289 0.37813136 13505 ...Continue Reading

[TLELIST] Current TLEs

September 10th 2023 PDT

HST 1 20580U 90037B 23252.86588201 .00005234 00000-0 27094-3 0 9995 2 20580 28.4694 64.2689 0002055 208.1048 263.0671 15.13968615634564 ISS (ZARYA) 1 25544U 98067A 23253.37876288 .00032365 00000-0 59026-3 0 9998 2 25544 51.6409 266.5052 0005792 3.2695 129.6030 15.49129367415009 CXO 1 25867U 99040B 23255.21910498 .00001004 00000-0 00000-0 0 9996 2 25867 37.3299 185.6725 9051732 271.5957 0.5289 0.37813136 13505 ...Continue Reading

[TLELIST] Current TLEs

September 9th 2023 PDT

HST 1 20580U 90037B 23251.87627331 .00004826 00000-0 24907-3 0 9999 2 20580 28.4694 70.8612 0002101 197.0829 269.7231 15.13958996634159 ISS (ZARYA) 1 25544U 98067A 23252.35730324 .00057937 00000-0 10476-2 0 9992 2 25544 51.6395 271.5502 0005287 358.8142 193.8284 15.49109346414844 CXO 1 25867U 99040B 23252.57395074 .00000900 00000-0 00000-0 0 9993 2 25867 37.3261 185.9903 9052545 271.3297 0.4408 0.37808872 13506 ...Continue Reading
  • This mailing list is a public mailing list - anyone may join or leave, at any time.
  • This mailing list is announce-only.

International Space Station (ISS) / Hubble Space Telescope (HST) / Chandra X-Ray Observatory Orbital Data via EMAIL

Privacy Policy:

Private list